Time,TemperatureF,DewpointF,PressureIn,WindDirection,WindDirectionDegrees,WindSpeedMPH,WindSpeedGustMPH,Humidity,HourlyPrecipIn,Conditions,Clouds,dailyrainin,SoftwareType,DateUTC
2013-08-25 00:01:00,54.3,29.9,30.34,NW,310,0.0,0.0,39,0.00,CLR,,0.00,WeatherDisplay:10.37,2013-08-25 04:01:00,
2013-08-25 00:02:00,54.3,29.9,30.34,NW,310,0.0,0.0,39,0.00,CLR,,0.00,WeatherDisplay:10.37,2013-08-25 04:02:00,
2013-08-25 00:07:00,54.1,29.7,30.34,NW,310,0.0,0.0,39,0.00,CLR,,0.00,WeatherDisplay:10.37,2013-08-25 04:07:00,
2013-08-25 00:12:00,54.1,30.3,30.34,NW,310,0.0,0.0,40,0.00,CLR,,0.00,WeatherDisplay:10.37,2013-08-25 04:12:00,
2013-08-25 00:17:00,54.0,30.2,30.34,NW,310,0.0,0.0,40,0.00,CLR,,0.00,WeatherDisplay:10.37,2013-08-25 04:17:00,
2013-08-25 00:22:00,53.8,30.6,30.34,NW,310,0.0,0.0,41,0.00,CLR,,0.00,WeatherDisplay:10.37,2013-08-25 04:22:00,
2013-08-25 00:27:00,53.6,29.8,30.34,NW,310,0.0,0.0,40,0.00,CLR,,0.00,WeatherDisplay:10.37,2013-08-25 04:27:00,
2013-08-25 00:32:00,53.6,29.8,30.34,NW,310,0.0,0.0,40,0.00,CLR,,0.00,WeatherDisplay:10.37,2013-08-25 04:32:00,
2013-08-25 00:37:00,53.4,30.3,30.34,NW,310,0.0,0.0,41,0.00,CLR,,0.00,WeatherDisplay:10.37,2013-08-25 04:37:00,
2013-08-25 00:42:00,53.4,30.3,30.34,NW,310,0.0,0.0,41,0.00,CLR,,0.00,WeatherDisplay:10.37,2013-08-25 04:42:00,
2013-08-25 00:47:00,53.4,30.9,30.34,NW,310,0.0,0.0,42,0.00,CLR,,0.00,WeatherDisplay:10.37,2013-08-25 04:47:00,
2013-08-25 00:52:00,53.4,30.9,30.34,NW,310,0.0,0.0,42,0.00,CLR,,0.00,WeatherDisplay:10.37,2013-08-25 04:52:00,
2013-08-25 00:57:00,53.2,30.7,30.34,NW,310,0.0,0.0,42,0.00,CLR,,0.00,WeatherDisplay:10.37,2013-08-25 04:57:00,
2013-08-25 01:02:00,53.2,30.7,30.34,NW,310,0.0,0.0,42,0.00,CLR,,0.00,WeatherDisplay:10.37,2013-08-25 05:02:00,
2013-08-25 01:07:00,53.4,31.5,30.34,NW,310,0.0,0.0,43,0.00,CLR,,0.00,WeatherDisplay:10.37,2013-08-25 05:07:00,
2013-08-25 01:12:00,53.2,31.3,30.34,NW,310,0.0,0.0,43,0.00,CLR,,0.00,WeatherDisplay:10.37,2013-08-25 05:12:00,
2013-08-25 01:17:00,53.1,31.1,30.34,NW,310,0.0,0.0,43,0.00,CLR,,0.00,WeatherDisplay:10.37,2013-08-25 05:17:00,
2013-08-25 01:22:00,52.9,31.0,30.34,NW,310,0.0,0.0,43,0.00,CLR,,0.00,WeatherDisplay:10.37,2013-08-25 05:22:00,
2013-08-25 01:27:00,52.9,31.0,30.34,NW,310,0.0,0.0,43,0.00,CLR,,0.00,WeatherDisplay:10.37,2013-08-25 05:27:00,
2013-08-25 01:32:00,52.9,31.0,30.34,NW,310,0.0,0.0,43,0.00,CLR,,0.00,WeatherDisplay:10.37,2013-08-25 05:32:00,
2013-08-25 01:37:00,52.9,31.0,30.34,NW,310,0.0,0.0,43,0.00,CLR,,0.00,WeatherDisplay:10.37,2013-08-25 05:37:00,
2013-08-25 01:42:00,52.9,31.5,30.34,NW,310,0.0,0.0,44,0.00,CLR,,0.00,WeatherDisplay:10.37,2013-08-25 05:42:00,
2013-08-25 01:47:00,52.7,31.4,30.34,NW,310,0.0,0.0,44,0.00,CLR,,0.00,WeatherDisplay:10.37,2013-08-25 05:47:00,
2013-08-25 01:52:00,52.5,31.2,30.34,NW,310,0.0,0.0,44,0.00,CLR,,0.00,WeatherDisplay:10.37,2013-08-25 05:52:00,
2013-08-25 01:57:00,52.5,31.8,30.34,NW,310,0.0,0.0,45,0.00,CLR,,0.00,WeatherDisplay:10.37,2013-08-25 05:57:00,
2013-08-25 02:02:00,52.5,32.3,30.34,NW,310,0.0,0.0,46,0.00,CLR,,0.00,WeatherDisplay:10.37,2013-08-25 06:02:00,
2013-08-25 02:07:00,52.3,32.2,30.34,NW,310,0.0,0.0,46,0.00,CLR,,0.00,WeatherDisplay:10.37,2013-08-25 06:07:00,
2013-08-25 02:12:00,52.3,32.2,30.34,NW,310,0.0,0.0,46,0.00,CLR,,0.00,WeatherDisplay:10.37,2013-08-25 06:12:00,
2013-08-25 02:17:00,52.2,32.0,30.34,NW,310,0.0,0.0,46,0.00,CLR,,0.00,WeatherDisplay:10.37,2013-08-25 06:17:00,
2013-08-25 02:22:00,52.2,32.0,30.34,NW,310,0.0,0.0,46,0.00,CLR,,0.00,WeatherDisplay:10.37,2013-08-25 06:22:00,
2013-08-25 02:27:00,52.0,31.8,30.34,NW,310,0.0,0.0,46,0.00,CLR,,0.00,WeatherDisplay:10.37,2013-08-25 06:27:00,
2013-08-25 02:32:00,52.0,31.8,30.34,NW,310,0.0,0.0,46,0.00,CLR,,0.00,WeatherDisplay:10.37,2013-08-25 06:32:00,
2013-08-25 02:37:00,52.0,31.8,30.34,NW,310,0.0,0.0,46,0.00,CLR,,0.00,WeatherDisplay:10.37,2013-08-25 06:37:00,
2013-08-25 02:42:00,52.0,31.8,30.34,NW,310,0.0,0.0,46,0.00,CLR,,0.00,WeatherDisplay:10.37,2013-08-25 06:42:00,
2013-08-25 02:47:00,52.0,31.8,30.34,NW,310,0.0,0.0,46,0.00,CLR,,0.00,WeatherDisplay:10.37,2013-08-25 06:47:00,
2013-08-25 02:52:00,52.0,31.8,30.34,NW,310,0.0,0.0,46,0.00,CLR,,0.00,WeatherDisplay:10.37,2013-08-25 06:52:00,
2013-08-25 02:57:00,51.8,31.7,30.34,NW,310,0.0,0.0,46,0.00,CLR,,0.00,WeatherDisplay:10.37,2013-08-25 06:57:00,
2013-08-25 03:02:00,51.8,31.7,30.34,NW,310,0.0,0.0,46,0.00,CLR,,0.00,WeatherDisplay:10.37,2013-08-25 07:02:00,
2013-08-25 03:07:00,51.8,31.7,30.34,NW,310,0.0,0.0,46,0.00,CLR,,0.00,WeatherDisplay:10.37,2013-08-25 07:07:00,
2013-08-25 03:12:00,51.8,31.7,30.34,NW,310,0.0,0.0,46,0.00,CLR,,0.00,WeatherDisplay:10.37,2013-08-25 07:12:00,
2013-08-25 03:17:00,51.6,32.0,30.34,NW,310,0.0,0.0,47,0.00,CLR,,0.00,WeatherDisplay:10.37,2013-08-25 07:17:00,
2013-08-25 03:22:00,51.6,32.0,30.34,NW,310,0.0,0.0,47,0.00,CLR,,0.00,WeatherDisplay:10.37,2013-08-25 07:22:00,
2013-08-25 03:27:00,51.6,32.0,30.34,NW,310,0.0,0.0,47,0.00,CLR,,0.00,WeatherDisplay:10.37,2013-08-25 07:27:00,
2013-08-25 03:32:00,51.6,32.0,30.34,NW,310,0.0,0.0,47,0.00,CLR,,0.00,WeatherDisplay:10.37,2013-08-25 07:32:00,
2013-08-25 03:37:00,51.6,32.0,30.34,NW,310,0.0,0.0,47,0.00,CLR,,0.00,WeatherDisplay:10.37,2013-08-25 07:37:00,
2013-08-25 03:42:00,51.6,32.0,30.34,NW,310,0.0,0.0,47,0.00,CLR,,0.00,WeatherDisplay:10.37,2013-08-25 07:42:00,
2013-08-25 03:47:00,51.4,31.9,30.34,NW,310,0.0,0.0,47,0.00,CLR,,0.00,WeatherDisplay:10.37,2013-08-25 07:47:00,
2013-08-25 03:52:00,51.4,31.9,30.34,NW,310,0.0,0.0,47,0.00,CLR,,0.00,WeatherDisplay:10.37,2013-08-25 07:52:00,
2013-08-25 03:57:00,51.4,31.9,30.34,NW,310,0.0,0.0,47,0.00,CLR,,0.00,WeatherDisplay:10.37,2013-08-25 07:57:00,
2013-08-25 04:02:00,51.4,31.9,30.34,NW,310,0.0,0.0,47,0.00,CLR,,0.00,WeatherDisplay:10.37,2013-08-25 08:02:00,
2013-08-25 04:07:00,51.4,31.9,30.34,NW,310,0.0,0.0,47,0.00,CLR,,0.00,WeatherDisplay:10.37,2013-08-25 08:07:00,
2013-08-25 04:12:00,51.4,31.9,30.34,NW,310,0.0,0.0,47,0.00,CLR,,0.00,WeatherDisplay:10.37,2013-08-25 08:12:00,
2013-08-25 04:17:00,51.4,31.9,30.34,NW,310,0.0,0.0,47,0.00,CLR,,0.00,WeatherDisplay:10.37,2013-08-25 08:17:00,
2013-08-25 04:22:00,51.4,31.9,30.34,NW,310,0.0,0.0,47,0.00,CLR,,0.00,WeatherDisplay:10.37,2013-08-25 08:22:00,
2013-08-25 04:27:00,51.4,31.9,30.34,NW,310,0.0,0.0,47,0.00,CLR,,0.00,WeatherDisplay:10.37,2013-08-25 08:27:00,
2013-08-25 04:32:00,51.4,31.9,30.34,NW,310,0.0,0.0,47,0.00,CLR,,0.00,WeatherDisplay:10.37,2013-08-25 08:32:00,
2013-08-25 04:37:00,51.4,31.9,30.34,NW,310,0.0,0.0,47,0.00,CLR,,0.00,WeatherDisplay:10.37,2013-08-25 08:37:00,
2013-08-25 04:42:00,51.4,31.9,30.34,NW,310,0.0,0.0,47,0.00,CLR,,0.00,WeatherDisplay:10.37,2013-08-25 08:42:00,
2013-08-25 04:47:00,51.4,31.9,30.34,NW,310,0.0,0.0,47,0.00,CLR,,0.00,WeatherDisplay:10.37,2013-08-25 08:47:00,
2013-08-25 04:52:00,51.4,31.9,30.34,NW,310,0.0,0.0,47,0.00,CLR,,0.00,WeatherDisplay:10.37,2013-08-25 08:52:00,
2013-08-25 04:57:00,51.6,32.0,30.34,NW,310,0.0,0.0,47,0.00,CLR,,0.00,WeatherDisplay:10.37,2013-08-25 08:57:00,
2013-08-25 05:02:00,51.6,32.0,30.34,NW,310,0.0,0.0,47,0.00,CLR,,0.00,WeatherDisplay:10.37,2013-08-25 09:02:00,
2013-08-25 05:07:00,51.6,32.0,30.34,NW,310,0.0,0.0,47,0.00,CLR,,0.00,WeatherDisplay:10.37,2013-08-25 09:07:00,
2013-08-25 05:12:00,51.6,32.0,30.34,NW,310,0.0,0.0,47,0.00,CLR,,0.00,WeatherDisplay:10.37,2013-08-25 09:12:00,
2013-08-25 05:17:00,51.6,32.0,30.34,NW,310,0.0,0.0,47,0.00,CLR,,0.00,WeatherDisplay:10.37,2013-08-25 09:17:00,
2013-08-25 05:22:00,51.8,32.2,30.34,NW,310,0.0,0.0,47,0.00,CLR,,0.00,WeatherDisplay:10.37,2013-08-25 09:22:00,
2013-08-25 05:27:00,51.6,32.0,30.34,NW,310,0.0,0.0,47,0.00,CLR,,0.00,WeatherDisplay:10.37,2013-08-25 09:27:00,
2013-08-25 05:32:00,51.8,32.2,30.37,NW,310,0.0,0.0,47,0.00,CLR,,0.00,WeatherDisplay:10.37,2013-08-25 09:32:00,
2013-08-25 05:37:00,51.8,32.2,30.37,NW,310,0.0,0.0,47,0.00,CLR,,0.00,WeatherDisplay:10.37,2013-08-25 09:37:00,
2013-08-25 05:42:00,51.8,32.2,30.37,NW,310,0.0,0.0,47,0.00,CLR,,0.00,WeatherDisplay:10.37,2013-08-25 09:42:00,
2013-08-25 05:47:00,51.8,32.2,30.37,NW,310,0.0,0.0,47,0.00,CLR,,0.00,WeatherDisplay:10.37,2013-08-25 09:47:00,
2013-08-25 05:52:00,52.0,32.4,30.37,NW,310,0.0,0.0,47,0.00,CLR,,0.00,WeatherDisplay:10.37,2013-08-25 09:52:00,
2013-08-25 05:57:00,52.0,32.4,30.37,NW,310,0.0,0.0,47,0.00,CLR,,0.00,WeatherDisplay:10.37,2013-08-25 09:57:00,
2013-08-25 06:02:00,52.0,32.4,30.37,NW,310,0.0,0.0,47,0.00,CLR,,0.00,WeatherDisplay:10.37,2013-08-25 10:02:00,
2013-08-25 06:07:00,52.0,32.4,30.37,NW,310,0.0,0.0,47,0.00,CLR,,0.00,WeatherDisplay:10.37,2013-08-25 10:07:00,
2013-08-25 06:12:00,52.0,32.4,30.37,NW,310,0.0,0.0,47,0.00,CLR,,0.00,WeatherDisplay:10.37,2013-08-25 10:12:00,
2013-08-25 06:17:00,52.0,32.4,30.37,NW,310,0.0,0.0,47,0.00,CLR,,0.00,WeatherDisplay:10.37,2013-08-25 10:17:00,
2013-08-25 06:22:00,52.0,32.4,30.37,NW,310,0.0,0.0,47,0.00,CLR,,0.00,WeatherDisplay:10.37,2013-08-25 10:22:00,
2013-08-25 06:27:00,52.0,32.4,30.37,NW,310,0.0,0.0,47,0.00,CLR,,0.00,WeatherDisplay:10.37,2013-08-25 10:27:00,
2013-08-25 06:32:00,52.2,32.5,30.37,NW,310,0.0,0.0,47,0.00,CLR,,0.00,WeatherDisplay:10.37,2013-08-25 10:32:00,
2013-08-25 06:37:00,52.2,32.5,30.37,NW,310,0.0,0.0,47,0.00,CLR,,0.00,WeatherDisplay:10.37,2013-08-25 10:37:00,
2013-08-25 06:42:00,52.3,32.7,30.37,NW,310,0.0,0.0,47,0.00,CLR,,0.00,WeatherDisplay:10.37,2013-08-25 10:42:00,
2013-08-25 06:47:00,52.5,32.9,30.37,NW,310,0.0,0.0,47,0.00,CLR,,0.00,WeatherDisplay:10.37,2013-08-25 10:47:00,
2013-08-25 06:52:00,52.7,33.0,30.37,NW,310,0.0,0.0,47,0.00,CLR,,0.00,WeatherDisplay:10.37,2013-08-25 10:52:00,
2013-08-25 06:57:00,52.9,33.2,30.37,NW,310,0.0,0.0,47,0.00,CLR,,0.00,WeatherDisplay:10.37,2013-08-25 10:57:00,
2013-08-25 07:02:00,53.2,33.5,30.37,NW,310,0.0,0.0,47,0.00,CLR,,0.00,WeatherDisplay:10.37,2013-08-25 11:02:00,
2013-08-25 07:07:00,53.4,33.7,30.37,NW,310,0.0,0.0,47,0.00,CLR,,0.00,WeatherDisplay:10.37,2013-08-25 11:07:00,
2013-08-25 07:12:00,53.8,33.5,30.37,NW,310,0.0,0.0,46,0.00,CLR,,0.00,WeatherDisplay:10.37,2013-08-25 11:12:00,
2013-08-25 07:17:00,54.0,33.6,30.40,NW,310,0.0,0.0,46,0.00,CLR,,0.00,WeatherDisplay:10.37,2013-08-25 11:17:00,
2013-08-25 07:22:00,54.5,34.1,30.40,NW,310,0.0,0.0,46,0.00,CLR,,0.00,WeatherDisplay:10.37,2013-08-25 11:22:00,
2013-08-25 07:27:00,54.9,34.5,30.40,NW,310,0.0,0.0,46,0.00,CLR,,0.00,WeatherDisplay:10.37,2013-08-25 11:27:00,
2013-08-25 07:32:00,55.2,34.8,30.40,NW,310,0.0,0.0,46,0.00,CLR,,0.00,WeatherDisplay:10.37,2013-08-25 11:32:00,
2013-08-25 07:37:00,55.8,35.3,30.40,NW,310,0.0,0.0,46,0.00,CLR,,0.00,WeatherDisplay:10.37,2013-08-25 11:37:00,
2013-08-25 07:42:00,56.1,35.6,30.40,NW,310,0.0,0.0,46,0.00,CLR,,0.00,WeatherDisplay:10.37,2013-08-25 11:42:00,
2013-08-25 07:47:00,56.7,36.1,30.37,NW,310,0.0,0.0,46,0.00,CLR,,0.00,WeatherDisplay:10.37,2013-08-25 11:47:00,
2013-08-25 07:52:00,57.2,36.0,30.37,NW,311,0.0,0.0,45,0.00,CLR,,0.00,WeatherDisplay:10.37,2013-08-25 11:52:00,
2013-08-25 07:57:00,57.9,36.7,30.37,NW,310,0.0,0.0,45,0.00,CLR,,0.00,WeatherDisplay:10.37,2013-08-25 11:57:00,
2013-08-25 08:02:00,58.5,37.2,30.40,NW,310,0.0,0.0,45,0.00,CLR,,0.00,WeatherDisplay:10.37,2013-08-25 12:02:00,
2013-08-25 08:07:00,58.8,37.5,30.40,NW,310,0.0,0.0,45,0.00,CLR,,0.00,WeatherDisplay:10.37,2013-08-25 12:07:00,
2013-08-25 08:12:00,59.7,37.8,30.40,NW,311,0.0,0.0,44,0.00,CLR,,0.00,WeatherDisplay:10.37,2013-08-25 12:12:00,
2013-08-25 08:17:00,60.6,38.6,30.40,NW,310,0.0,0.0,44,0.00,CLR,,0.00,WeatherDisplay:10.37,2013-08-25 12:17:00,
2013-08-25 08:22:00,61.2,39.1,30.40,NW,310,0.0,0.0,44,0.00,CLR,,0.00,WeatherDisplay:10.37,2013-08-25 12:22:00,
2013-08-25 08:27:00,61.5,35.7,30.40,NW,311,0.0,0.0,38,0.00,CLR,,0.00,WeatherDisplay:10.37,2013-08-25 12:27:00,
2013-08-25 08:32:00,62.2,34.9,30.37,NW,310,0.0,0.0,36,0.00,CLR,,0.00,WeatherDisplay:10.37,2013-08-25 12:32:00,
2013-08-25 08:37:00,63.0,34.9,30.37,NW,311,0.0,0.0,35,0.00,CLR,,0.00,WeatherDisplay:10.37,2013-08-25 12:37:00,
2013-08-25 08:42:00,63.5,34.6,30.37,NW,310,0.0,0.0,34,0.00,CLR,,0.00,WeatherDisplay:10.37,2013-08-25 12:42:00,
2013-08-25 08:47:00,64.0,34.3,30.40,NW,311,0.0,0.0,33,0.00,CLR,,0.00,WeatherDisplay:10.37,2013-08-25 12:47:00,
2013-08-25 08:52:00,64.4,32.3,30.40,NW,311,0.0,0.0,30,0.00,CLR,,0.00,WeatherDisplay:10.37,2013-08-25 12:52:00,
2013-08-25 08:57:00,65.3,31.3,30.40,NW,310,0.0,0.0,28,0.00,CLR,,0.00,WeatherDisplay:10.37,2013-08-25 12:57:00,
2013-08-25 09:02:00,66.2,31.2,30.37,NW,310,0.0,0.0,27,0.00,CLR,,0.00,WeatherDisplay:10.37,2013-08-25 13:02:00,
2013-08-25 09:07:00,66.6,31.5,30.37,NW,311,0.0,0.0,27,0.00,CLR,,0.00,WeatherDisplay:10.37,2013-08-25 13:07:00,
2013-08-25 09:12:00,66.7,31.7,30.37,NW,311,0.0,0.0,27,0.00,CLR,,0.00,WeatherDisplay:10.37,2013-08-25 13:12:00,
2013-08-25 09:17:00,66.7,31.7,30.37,NW,311,0.0,0.0,27,0.00,CLR,,0.00,WeatherDisplay:10.37,2013-08-25 13:17:00,
2013-08-25 09:22:00,67.3,32.1,30.37,NW,314,0.0,0.0,27,0.00,CLR,,0.00,WeatherDisplay:10.37,2013-08-25 13:22:00,
2013-08-25 09:27:00,67.6,32.4,30.37,NW,314,0.0,0.0,27,0.00,CLR,,0.00,WeatherDisplay:10.37,2013-08-25 13:27:00,
2013-08-25 09:32:00,68.0,32.7,30.40,NW,312,0.0,0.0,27,0.00,CLR,,0.00,WeatherDisplay:10.37,2013-08-25 13:32:00,
2013-08-25 09:37:00,68.5,31.3,30.40,NW,312,0.0,0.0,25,0.00,CLR,,0.00,WeatherDisplay:10.37,2013-08-25 13:37:00,
2013-08-25 09:42:00,68.7,31.4,30.40,North,357,0.0,0.0,25,0.00,CLR,,0.00,WeatherDisplay:10.37,2013-08-25 13:42:00,
2013-08-25 09:47:00,69.3,31.9,30.40,North,357,0.0,0.0,25,0.00,CLR,,0.00,WeatherDisplay:10.37,2013-08-25 13:47:00,
2013-08-25 09:52:00,69.6,32.2,30.40,North,357,0.0,0.0,25,0.00,CLR,,0.00,WeatherDisplay:10.37,2013-08-25 13:52:00,
2013-08-25 09:57:00,70.2,31.7,30.40,North,8,0.0,0.0,24,0.00,CLR,,0.00,WeatherDisplay:10.37,2013-08-25 13:57:00,
2013-08-25 10:02:00,70.5,32.0,30.40,North,8,0.0,0.0,24,0.00,CLR,,0.00,WeatherDisplay:10.37,2013-08-25 14:02:00,
2013-08-25 10:07:00,70.9,32.3,30.40,North,0,0.0,0.0,24,0.00,CLR,,0.00,WeatherDisplay:10.37,2013-08-25 14:07:00,
2013-08-25 10:12:00,71.2,32.6,30.40,North,0,0.0,0.0,24,0.00,CLR,,0.00,WeatherDisplay:10.37,2013-08-25 14:12:00,
2013-08-25 10:17:00,71.6,32.9,30.37,North,2,0.0,0.0,24,0.00,CLR,,0.00,WeatherDisplay:10.37,2013-08-25 14:17:00,
2013-08-25 10:22:00,71.8,33.0,30.37,ESE,119,0.0,0.0,24,0.00,CLR,,0.00,WeatherDisplay:10.37,2013-08-25 14:22:00,
2013-08-25 10:27:00,72.3,33.5,30.37,ESE,103,3.5,0.0,24,0.00,CLR,,0.00,WeatherDisplay:10.37,2013-08-25 14:27:00,
2013-08-25 10:32:00,72.5,33.6,30.37,SE,128,2.7,0.0,24,0.00,CLR,,0.00,WeatherDisplay:10.37,2013-08-25 14:32:00,
2013-08-25 10:37:00,72.9,33.9,30.37,SE,144,0.0,0.0,24,0.00,CLR,,0.00,WeatherDisplay:10.37,2013-08-25 14:37:00,
2013-08-25 10:42:00,73.4,33.3,30.37,East,98,0.0,0.0,23,0.00,CLR,,0.00,WeatherDisplay:10.37,2013-08-25 14:42:00,
2013-08-25 10:47:00,73.8,33.6,30.37,ENE,73,3.5,0.0,23,0.00,CLR,,0.00,WeatherDisplay:10.37,2013-08-25 14:47:00,
2013-08-25 10:52:00,74.1,33.9,30.37,ESE,123,3.5,0.0,23,0.00,CLR,,0.00,WeatherDisplay:10.37,2013-08-25 14:52:00,
2013-08-25 10:57:00,74.7,34.4,30.37,East,81,3.5,0.0,23,0.00,CLR,,0.00,WeatherDisplay:10.37,2013-08-25 14:57:00,
2013-08-25 11:02:00,74.8,34.5,30.37,SE,143,5.8,0.0,23,0.00,CLR,,0.00,WeatherDisplay:10.37,2013-08-25 15:02:00,
2013-08-25 11:07:00,75.7,35.3,30.37,East,83,0.0,0.0,23,0.00,CLR,,0.00,WeatherDisplay:10.37,2013-08-25 15:07:00,
2013-08-25 11:12:00,75.7,35.3,30.37,East,83,0.0,0.0,23,0.00,CLR,,0.00,WeatherDisplay:10.37,2013-08-25 15:12:00,
2013-08-25 11:17:00,76.3,35.7,30.37,East,80,2.3,0.0,23,0.00,CLR,,0.00,WeatherDisplay:10.37,2013-08-25 15:17:00,
2013-08-25 11:22:00,76.1,35.6,30.37,East,90,0.0,0.0,23,0.00,CLR,,0.00,WeatherDisplay:10.37,2013-08-25 15:22:00,
2013-08-25 11:27:00,79.0,36.9,30.37,East,90,0.0,0.0,22,0.00,CLR,,0.00,WeatherDisplay:10.37,2013-08-25 15:27:00,
2013-08-25 11:32:00,77.9,37.1,30.34,NNW,328,2.3,0.0,23,0.00,CLR,,0.00,WeatherDisplay:10.37,2013-08-25 15:32:00,
2013-08-25 11:37:00,80.2,37.9,30.34,ESE,107,3.5,0.0,22,0.00,CLR,,0.00,WeatherDisplay:10.37,2013-08-25 15:37:00,
2013-08-25 11:42:00,80.1,37.8,30.34,ENE,76,2.3,0.0,22,0.00,CLR,,0.00,WeatherDisplay:10.37,2013-08-25 15:42:00,
2013-08-25 11:47:00,79.0,36.9,30.34,WNW,290,2.3,0.0,22,0.00,CLR,,0.00,WeatherDisplay:10.37,2013-08-25 15:47:00,
2013-08-25 11:52:00,78.3,37.4,30.34,NW,308,3.5,0.0,23,0.00,CLR,,0.00,WeatherDisplay:10.37,2013-08-25 15:52:00,
2013-08-25 11:57:00,78.3,37.4,30.34,North,353,2.3,0.0,23,0.00,CLR,,0.00,WeatherDisplay:10.37,2013-08-25 15:57:00,
2013-08-25 12:02:00,78.3,37.4,30.34,WNW,296,3.5,3.5,23,0.00,CLR,,0.00,WeatherDisplay:10.37,2013-08-25 16:02:00,
2013-08-25 12:07:00,78.3,37.4,30.34,WNW,300,2.3,2.3,23,0.00,CLR,,0.00,WeatherDisplay:10.37,2013-08-25 16:07:00,
2013-08-25 12:12:00,79.3,37.2,30.34,NW,307,0.0,0.0,22,0.00,CLR,,0.00,WeatherDisplay:10.37,2013-08-25 16:12:00,
2013-08-25 12:17:00,83.8,39.7,30.34,West,269,0.0,0.0,21,0.00,CLR,,0.00,WeatherDisplay:10.37,2013-08-25 16:17:00,
2013-08-25 12:22:00,86.9,42.3,30.34,WNW,291,2.3,0.0,21,0.00,CLR,,0.00,WeatherDisplay:10.37,2013-08-25 16:22:00,
2013-08-25 12:27:00,85.8,41.4,30.34,NE,54,0.0,0.0,21,0.00,CLR,,0.00,WeatherDisplay:10.37,2013-08-25 16:27:00,
2013-08-25 12:32:00,82.9,39.0,30.34,WNW,292,0.0,0.0,21,0.00,CLR,,0.00,WeatherDisplay:10.37,2013-08-25 16:32:00,
2013-08-25 12:37:00,81.3,38.8,30.34,NW,311,2.3,0.0,22,0.00,CLR,,0.00,WeatherDisplay:10.37,2013-08-25 16:37:00,
2013-08-25 12:42:00,79.9,37.6,30.34,WSW,241,3.5,0.0,22,0.00,CLR,,0.00,WeatherDisplay:10.37,2013-08-25 16:42:00,
2013-08-25 12:47:00,80.4,38.1,30.31,WNW,294,3.5,3.5,22,0.00,CLR,,0.00,WeatherDisplay:10.37,2013-08-25 16:47:00,
2013-08-25 12:52:00,81.7,39.1,30.31,SW,233,3.5,3.5,22,0.00,CLR,,0.00,WeatherDisplay:10.37,2013-08-25 16:52:00,
2013-08-25 12:57:00,83.5,39.4,30.31,ESE,117,3.5,0.0,21,0.00,CLR,,0.00,WeatherDisplay:10.37,2013-08-25 16:57:00,
2013-08-25 13:02:00,81.9,39.3,30.31,SW,225,3.5,0.0,22,0.00,CLR,,0.00,WeatherDisplay:10.37,2013-08-25 17:02:00,
2013-08-25 13:07:00,86.9,42.3,30.31,WNW,300,2.3,0.0,21,0.00,CLR,,0.00,WeatherDisplay:10.37,2013-08-25 17:07:00,
2013-08-25 13:12:00,85.5,41.1,30.31,NW,306,2.3,2.3,21,0.00,CLR,,0.00,WeatherDisplay:10.37,2013-08-25 17:12:00,
2013-08-25 13:17:00,83.8,39.7,30.31,NW,312,0.0,0.0,21,0.00,CLR,,0.00,WeatherDisplay:10.37,2013-08-25 17:17:00,
2013-08-25 13:22:00,82.6,38.7,30.31,NNE,30,0.0,0.0,21,0.00,CLR,,0.00,WeatherDisplay:10.37,2013-08-25 17:22:00,
2013-08-25 13:27:00,82.2,39.6,30.31,WNW,298,0.0,0.0,22,0.00,CLR,,0.00,WeatherDisplay:10.37,2013-08-25 17:27:00,
2013-08-25 13:32:00,81.1,38.7,30.31,SW,230,3.5,3.5,22,0.00,CLR,,0.00,WeatherDisplay:10.37,2013-08-25 17:32:00,
2013-08-25 13:37:00,81.0,38.5,30.31,ESE,107,2.3,0.0,22,0.00,CLR,,0.00,WeatherDisplay:10.37,2013-08-25 17:37:00,
2013-08-25 13:42:00,81.1,38.7,30.31,SSE,166,3.5,3.5,22,0.00,CLR,,0.00,WeatherDisplay:10.37,2013-08-25 17:42:00,
2013-08-25 13:47:00,81.0,38.5,30.31,WNW,298,3.1,3.1,22,0.00,CLR,,0.00,WeatherDisplay:10.37,2013-08-25 17:47:00,
2013-08-25 13:52:00,80.6,38.2,30.31,South,185,3.5,3.5,22,0.00,CLR,,0.00,WeatherDisplay:10.37,2013-08-25 17:52:00,
2013-08-25 13:57:00,80.4,38.1,30.31,WSW,253,5.8,5.8,22,0.00,CLR,,0.00,WeatherDisplay:10.37,2013-08-25 17:57:00,
2013-08-25 14:02:00,80.4,38.1,30.31,West,266,2.3,0.0,22,0.00,CLR,,0.00,WeatherDisplay:10.37,2013-08-25 18:02:00,
2013-08-25 14:07:00,82.9,39.0,30.31,NW,317,2.3,0.0,21,0.00,CLR,,0.00,WeatherDisplay:10.37,2013-08-25 18:07:00,
2013-08-25 14:12:00,83.8,39.7,30.31,West,276,2.3,0.0,21,0.00,CLR,,0.00,WeatherDisplay:10.37,2013-08-25 18:12:00,
2013-08-25 14:17:00,83.8,39.7,30.31,WSW,251,2.3,0.0,21,0.00,CLR,,0.00,WeatherDisplay:10.37,2013-08-25 18:17:00,
2013-08-25 14:22:00,82.2,39.6,30.31,NW,315,3.1,0.0,22,0.00,CLR,,0.00,WeatherDisplay:10.37,2013-08-25 18:22:00,
2013-08-25 14:27:00,81.0,38.5,30.31,WNW,290,0.0,0.0,22,0.00,CLR,,0.00,WeatherDisplay:10.37,2013-08-25 18:27:00,
2013-08-25 14:32:00,81.0,38.5,30.28,SSE,167,0.0,0.0,22,0.00,CLR,,0.00,WeatherDisplay:10.37,2013-08-25 18:32:00,
2013-08-25 14:37:00,81.1,38.7,30.28,WSW,246,3.5,0.0,22,0.00,CLR,,0.00,WeatherDisplay:10.37,2013-08-25 18:37:00,
2013-08-25 14:42:00,81.1,38.7,30.28,NNE,31,3.5,3.5,22,0.00,CLR,,0.00,WeatherDisplay:10.37,2013-08-25 18:42:00,
2013-08-25 14:47:00,82.9,39.0,30.28,NNE,28,4.0,4.0,21,0.00,CLR,,0.00,WeatherDisplay:10.37,2013-08-25 18:47:00,
2013-08-25 14:52:00,82.9,39.0,30.28,West,274,2.3,2.7,21,0.00,CLR,,0.00,WeatherDisplay:10.37,2013-08-25 18:52:00,
2013-08-25 14:57:00,81.9,39.3,30.28,WNW,302,2.3,0.0,22,0.00,CLR,,0.00,WeatherDisplay:10.37,2013-08-25 18:57:00,
2013-08-25 15:02:00,81.5,39.0,30.28,NW,326,3.5,3.6,22,0.00,CLR,,0.00,WeatherDisplay:10.37,2013-08-25 19:02:00,
2013-08-25 15:07:00,81.3,38.8,30.28,NW,326,0.0,0.0,22,0.00,CLR,,0.00,WeatherDisplay:10.37,2013-08-25 19:07:00,
2013-08-25 15:12:00,81.1,38.7,30.28,ENE,62,5.8,5.8,22,0.00,CLR,,0.00,WeatherDisplay:10.37,2013-08-25 19:12:00,
2013-08-25 15:17:00,81.1,38.7,30.28,NW,323,3.5,3.5,22,0.00,CLR,,0.00,WeatherDisplay:10.37,2013-08-25 19:17:00,
2013-08-25 15:22:00,81.1,38.7,30.28,ESE,111,0.0,0.0,22,0.00,CLR,,0.00,WeatherDisplay:10.37,2013-08-25 19:22:00,
2013-08-25 15:27:00,80.8,38.4,30.28,WNW,289,3.5,0.0,22,0.00,CLR,,0.00,WeatherDisplay:10.37,2013-08-25 19:27:00,
2013-08-25 15:32:00,80.8,38.4,30.28,North,2,3.6,0.0,22,0.00,CLR,,0.00,WeatherDisplay:10.37,2013-08-25 19:32:00,
2013-08-25 15:37:00,80.8,38.4,30.28,WSW,258,0.0,0.0,22,0.00,CLR,,0.00,WeatherDisplay:10.37,2013-08-25 19:37:00,
2013-08-25 15:42:00,80.8,38.4,30.28,WNW,292,3.5,0.0,22,0.00,CLR,,0.00,WeatherDisplay:10.37,2013-08-25 19:42:00,
2013-08-25 15:47:00,81.0,38.5,30.25,West,266,0.0,0.0,22,0.00,CLR,,0.00,WeatherDisplay:10.37,2013-08-25 19:47:00,
2013-08-25 15:52:00,81.3,38.8,30.25,WNW,292,2.3,3.1,22,0.00,CLR,,0.00,WeatherDisplay:10.37,2013-08-25 19:52:00,
2013-08-25 15:57:00,81.3,38.8,30.25,NW,305,3.5,3.5,22,0.00,CLR,,0.00,WeatherDisplay:10.37,2013-08-25 19:57:00,
2013-08-25 16:02:00,81.1,38.7,30.25,SSW,194,3.5,0.0,22,0.00,CLR,,0.00,WeatherDisplay:10.37,2013-08-25 20:02:00,
2013-08-25 16:07:00,81.0,38.5,30.25,SW,234,8.1,8.1,22,0.00,CLR,,0.00,WeatherDisplay:10.37,2013-08-25 20:07:00,
2013-08-25 16:12:00,80.8,38.4,30.25,SW,221,2.3,0.0,22,0.00,CLR,,0.00,WeatherDisplay:10.37,2013-08-25 20:12:00,
2013-08-25 16:17:00,80.4,38.1,30.25,SW,235,2.3,0.0,22,0.00,CLR,,0.00,WeatherDisplay:10.37,2013-08-25 20:17:00,
2013-08-25 16:22:00,80.2,37.9,30.25,NE,38,2.3,0.0,22,0.00,CLR,,0.00,WeatherDisplay:10.37,2013-08-25 20:22:00,
2013-08-25 16:27:00,80.2,37.9,30.25,NE,52,0.0,0.0,22,0.00,CLR,,0.00,WeatherDisplay:10.37,2013-08-25 20:27:00,
2013-08-25 16:32:00,80.1,37.8,30.25,NW,306,4.0,4.0,22,0.00,CLR,,0.00,WeatherDisplay:10.37,2013-08-25 20:32:00,
2013-08-25 16:37:00,80.1,37.8,30.25,WNW,301,2.3,0.0,22,0.00,CLR,,0.00,WeatherDisplay:10.37,2013-08-25 20:37:00,
2013-08-25 16:42:00,80.1,37.8,30.25,WNW,292,3.5,0.0,22,0.00,CLR,,0.00,WeatherDisplay:10.37,2013-08-25 20:42:00,
2013-08-25 16:47:00,80.1,37.8,30.25,NW,305,3.5,3.5,22,0.00,CLR,,0.00,WeatherDisplay:10.37,2013-08-25 20:47:00,
2013-08-25 16:52:00,80.1,37.8,30.25,WNW,300,2.3,2.3,22,0.00,CLR,,0.00,WeatherDisplay:10.37,2013-08-25 20:52:00,
2013-08-25 16:57:00,79.9,37.6,30.25,WNW,301,3.5,0.0,22,0.00,CLR,,0.00,WeatherDisplay:10.37,2013-08-25 20:57:00,
2013-08-25 17:02:00,79.7,37.5,30.25,North,353,6.9,6.9,22,0.00,CLR,,0.00,WeatherDisplay:10.37,2013-08-25 21:02:00,
2013-08-25 17:07:00,79.5,37.3,30.25,North,353,0.0,0.0,22,0.00,CLR,,0.00,WeatherDisplay:10.37,2013-08-25 21:07:00,
2013-08-25 17:12:00,79.7,37.5,30.25,ESE,120,0.0,0.0,22,0.00,CLR,,0.00,WeatherDisplay:10.37,2013-08-25 21:12:00,
2013-08-25 17:17:00,79.5,37.3,30.25,East,95,0.0,0.0,22,0.00,CLR,,0.00,WeatherDisplay:10.37,2013-08-25 21:17:00,
2013-08-25 17:22:00,79.2,37.0,30.25,ESE,119,0.0,0.0,22,0.00,CLR,,0.00,WeatherDisplay:10.37,2013-08-25 21:22:00,
2013-08-25 17:27:00,79.2,37.0,30.25,ESE,106,0.0,0.0,22,0.00,CLR,,0.00,WeatherDisplay:10.37,2013-08-25 21:27:00,
2013-08-25 17:32:00,79.0,36.9,30.22,North,357,3.5,0.0,22,0.00,CLR,,0.00,WeatherDisplay:10.37,2013-08-25 21:32:00,
2013-08-25 17:37:00,78.8,36.7,30.22,North,357,0.0,0.0,22,0.00,CLR,,0.00,WeatherDisplay:10.37,2013-08-25 21:37:00,
2013-08-25 17:42:00,78.8,36.7,30.22,West,273,4.6,0.0,22,0.00,CLR,,0.00,WeatherDisplay:10.37,2013-08-25 21:42:00,
2013-08-25 17:47:00,78.8,36.7,30.22,NW,306,2.3,0.0,22,0.00,CLR,,0.00,WeatherDisplay:10.37,2013-08-25 21:47:00,
2013-08-25 17:52:00,78.4,37.6,30.22,WNW,299,0.0,0.0,23,0.00,CLR,,0.00,WeatherDisplay:10.37,2013-08-25 21:52:00,
2013-08-25 17:57:00,78.1,37.3,30.22,NNW,340,2.3,2.7,23,0.00,CLR,,0.00,WeatherDisplay:10.37,2013-08-25 21:57:00,
2013-08-25 18:02:00,77.9,37.1,30.22,SSE,167,0.0,0.0,23,0.00,CLR,,0.00,WeatherDisplay:10.37,2013-08-25 22:02:00,
2013-08-25 18:07:00,77.5,36.8,30.22,WNW,302,2.3,0.0,23,0.00,CLR,,0.00,WeatherDisplay:10.37,2013-08-25 22:07:00,
2013-08-25 18:12:00,77.5,36.8,30.22,South,182,0.0,0.0,23,0.00,CLR,,0.00,WeatherDisplay:10.37,2013-08-25 22:12:00,
2013-08-25 18:17:00,77.2,36.5,30.22,NE,43,0.0,0.0,23,0.00,CLR,,0.00,WeatherDisplay:10.37,2013-08-25 22:17:00,
2013-08-25 18:22:00,77.0,36.3,30.22,WNW,292,0.0,0.0,23,0.00,CLR,,0.00,WeatherDisplay:10.37,2013-08-25 22:22:00,
2013-08-25 18:27:00,76.5,35.9,30.22,SSW,207,0.0,0.0,23,0.00,CLR,,0.00,WeatherDisplay:10.37,2013-08-25 22:27:00,
2013-08-25 18:32:00,75.9,35.4,30.22,SSW,208,0.0,0.0,23,0.00,CLR,,0.00,WeatherDisplay:10.37,2013-08-25 22:32:00,
2013-08-25 18:37:00,75.4,35.0,30.22,WSW,245,0.0,0.0,23,0.00,CLR,,0.00,WeatherDisplay:10.37,2013-08-25 22:37:00,
2013-08-25 18:42:00,75.0,34.7,30.22,WSW,245,0.0,0.0,23,0.00,CLR,,0.00,WeatherDisplay:10.37,2013-08-25 22:42:00,
2013-08-25 18:47:00,74.5,34.2,30.22,WSW,246,0.0,0.0,23,0.00,CLR,,0.00,WeatherDisplay:10.37,2013-08-25 22:47:00,
2013-08-25 18:52:00,73.9,33.8,30.22,WSW,246,0.0,0.0,23,0.00,CLR,,0.00,WeatherDisplay:10.37,2013-08-25 22:52:00,
2013-08-25 18:57:00,73.4,33.3,30.22,WSW,246,0.0,0.0,23,0.00,CLR,,0.00,WeatherDisplay:10.37,2013-08-25 22:57:00,
2013-08-25 19:02:00,72.9,33.9,30.22,WSW,248,0.0,0.0,24,0.00,CLR,,0.00,WeatherDisplay:10.37,2013-08-25 23:02:00,
2013-08-25 19:07:00,72.5,33.6,30.22,WSW,247,0.0,0.0,24,0.00,CLR,,0.00,WeatherDisplay:10.37,2013-08-25 23:07:00,
2013-08-25 19:12:00,72.1,33.3,30.22,WSW,248,0.0,0.0,24,0.00,CLR,,0.00,WeatherDisplay:10.37,2013-08-25 23:12:00,
2013-08-25 19:17:00,71.6,32.9,30.19,WSW,248,0.0,0.0,24,0.00,CLR,,0.00,WeatherDisplay:10.37,2013-08-25 23:17:00,
2013-08-25 19:22:00,71.2,32.6,30.19,WSW,248,0.0,0.0,24,0.00,CLR,,0.00,WeatherDisplay:10.37,2013-08-25 23:22:00,
2013-08-25 19:27:00,70.7,32.1,30.19,WSW,248,0.0,0.0,24,0.00,CLR,,0.00,WeatherDisplay:10.37,2013-08-25 23:27:00,
2013-08-25 19:32:00,70.3,31.8,30.19,WSW,248,0.0,0.0,24,0.00,CLR,,0.00,WeatherDisplay:10.37,2013-08-25 23:32:00,
2013-08-25 19:37:00,70.0,31.5,30.19,WSW,248,0.0,0.0,24,0.00,CLR,,0.00,WeatherDisplay:10.37,2013-08-25 23:37:00,
2013-08-25 19:42:00,69.6,32.2,30.19,WSW,248,0.0,0.0,25,0.00,CLR,,0.00,WeatherDisplay:10.37,2013-08-25 23:42:00,
2013-08-25 19:47:00,69.4,32.1,30.19,WSW,248,0.0,0.0,25,0.00,CLR,,0.00,WeatherDisplay:10.37,2013-08-25 23:47:00,
2013-08-25 19:52:00,69.1,31.8,30.19,WSW,248,0.0,0.0,25,0.00,CLR,,0.00,WeatherDisplay:10.37,2013-08-25 23:52:00,
2013-08-25 19:57:00,68.7,31.4,30.19,WSW,248,0.0,0.0,25,0.00,CLR,,0.00,WeatherDisplay:10.37,2013-08-25 23:57:00,
2013-08-25 20:02:00,68.5,31.3,30.22,WSW,248,0.0,0.0,25,0.00,CLR,,0.00,WeatherDisplay:10.37,2013-08-26 00:02:00,
2013-08-25 20:07:00,68.2,31.0,30.22,WSW,248,0.0,0.0,25,0.00,CLR,,0.00,WeatherDisplay:10.37,2013-08-26 00:07:00,
2013-08-25 20:12:00,68.0,30.8,30.22,WSW,248,0.0,0.0,25,0.00,CLR,,0.00,WeatherDisplay:10.37,2013-08-26 00:12:00,
2013-08-25 20:17:00,67.6,30.5,30.22,WSW,248,0.0,0.0,25,0.00,CLR,,0.00,WeatherDisplay:10.37,2013-08-26 00:17:00,
2013-08-25 20:22:00,67.5,30.4,30.22,WSW,248,0.0,0.0,25,0.00,CLR,,0.00,WeatherDisplay:10.37,2013-08-26 00:22:00,
2013-08-25 20:27:00,67.3,30.2,30.22,WSW,248,0.0,0.0,25,0.00,CLR,,0.00,WeatherDisplay:10.37,2013-08-26 00:27:00,
2013-08-25 20:32:00,67.1,30.1,30.22,WSW,248,0.0,0.0,25,0.00,CLR,,0.00,WeatherDisplay:10.37,2013-08-26 00:32:00,
2013-08-25 20:37:00,66.9,29.9,30.22,WSW,248,0.0,0.0,25,0.00,CLR,,0.00,WeatherDisplay:10.37,2013-08-26 00:37:00,
2013-08-25 20:42:00,66.7,29.8,30.22,WSW,248,0.0,0.0,25,0.00,CLR,,0.00,WeatherDisplay:10.37,2013-08-26 00:42:00,
2013-08-25 20:47:00,66.6,29.6,30.22,WSW,248,0.0,0.0,25,0.00,CLR,,0.00,WeatherDisplay:10.37,2013-08-26 00:47:00,
2013-08-25 20:52:00,66.4,29.5,30.22,WSW,248,0.0,0.0,25,0.00,CLR,,0.00,WeatherDisplay:10.37,2013-08-26 00:52:00,
2013-08-25 20:57:00,66.2,29.3,30.22,WSW,248,0.0,0.0,25,0.00,CLR,,0.00,WeatherDisplay:10.37,2013-08-26 00:57:00,
2013-08-25 21:02:00,66.2,29.3,30.22,WSW,248,0.0,0.0,25,0.00,CLR,,0.00,WeatherDisplay:10.37,2013-08-26 01:02:00,
2013-08-25 21:07:00,66.0,29.2,30.22,WSW,248,0.0,0.0,25,0.00,CLR,,0.00,WeatherDisplay:10.37,2013-08-26 01:07:00,
2013-08-25 21:12:00,66.0,29.2,30.22,WSW,248,0.0,0.0,25,0.00,CLR,,0.00,WeatherDisplay:10.37,2013-08-26 01:12:00,
2013-08-25 21:17:00,65.8,29.0,30.22,WSW,248,0.0,0.0,25,0.00,CLR,,0.00,WeatherDisplay:10.37,2013-08-26 01:17:00,
2013-08-25 21:22:00,65.7,28.8,30.22,WSW,248,0.0,0.0,25,0.00,CLR,,0.00,WeatherDisplay:10.37,2013-08-26 01:22:00,
2013-08-25 21:27:00,65.7,28.8,30.22,WSW,248,0.0,0.0,25,0.00,CLR,,0.00,WeatherDisplay:10.37,2013-08-26 01:27:00,
2013-08-25 21:32:00,65.5,28.7,30.22,WSW,248,0.0,0.0,25,0.00,CLR,,0.00,WeatherDisplay:10.37,2013-08-26 01:32:00,
2013-08-25 21:37:00,65.5,28.7,30.22,WSW,248,0.0,0.0,25,0.00,CLR,,0.00,WeatherDisplay:10.37,2013-08-26 01:37:00,
2013-08-25 21:42:00,65.5,28.7,30.22,WSW,248,0.0,0.0,25,0.00,CLR,,0.00,WeatherDisplay:10.37,2013-08-26 01:42:00,
2013-08-25 21:47:00,65.5,28.7,30.22,WSW,248,0.0,0.0,25,0.00,CLR,,0.00,WeatherDisplay:10.37,2013-08-26 01:47:00,
2013-08-25 21:52:00,65.5,31.5,30.22,WSW,248,0.0,0.0,28,0.00,CLR,,0.00,WeatherDisplay:10.37,2013-08-26 01:52:00,
2013-08-25 21:57:00,65.7,31.6,30.22,WSW,248,0.0,0.0,28,0.00,CLR,,0.00,WeatherDisplay:10.37,2013-08-26 01:57:00,
2013-08-25 22:02:00,65.7,31.6,30.19,WSW,248,0.0,0.0,28,0.00,CLR,,0.00,WeatherDisplay:10.37,2013-08-26 02:02:00,
2013-08-25 22:07:00,65.8,31.8,30.19,WSW,248,0.0,0.0,28,0.00,CLR,,0.00,WeatherDisplay:10.37,2013-08-26 02:07:00,
2013-08-25 22:12:00,66.0,29.2,30.19,WSW,248,0.0,0.0,25,0.00,CLR,,0.00,WeatherDisplay:10.37,2013-08-26 02:12:00,
2013-08-25 22:17:00,66.2,31.2,30.19,WSW,248,0.0,0.0,27,0.00,CLR,,0.00,WeatherDisplay:10.37,2013-08-26 02:17:00,
2013-08-25 22:22:00,66.2,29.3,30.19,WSW,248,0.0,0.0,25,0.00,CLR,,0.00,WeatherDisplay:10.37,2013-08-26 02:22:00,
2013-08-25 22:27:00,66.2,29.3,30.19,WSW,248,0.0,0.0,25,0.00,CLR,,0.00,WeatherDisplay:10.37,2013-08-26 02:27:00,
2013-08-25 22:32:00,66.0,29.2,30.19,WSW,248,0.0,0.0,25,0.00,CLR,,0.00,WeatherDisplay:10.37,2013-08-26 02:32:00,
2013-08-25 22:37:00,66.2,29.3,30.19,WSW,248,0.0,0.0,25,0.00,CLR,,0.00,WeatherDisplay:10.37,2013-08-26 02:37:00,
2013-08-25 22:42:00,66.2,29.3,30.19,NNE,22,0.0,0.0,25,0.00,CLR,,0.00,WeatherDisplay:10.37,2013-08-26 02:42:00,
2013-08-25 22:47:00,66.2,29.3,30.19,NNE,23,0.0,0.0,25,0.00,CLR,,0.00,WeatherDisplay:10.37,2013-08-26 02:47:00,
2013-08-25 22:52:00,66.2,29.3,30.19,NNE,23,0.0,0.0,25,0.00,CLR,,0.00,WeatherDisplay:10.37,2013-08-26 02:52:00,
2013-08-25 22:57:00,66.4,29.5,30.19,NNE,23,0.0,0.0,25,0.00,CLR,,0.00,WeatherDisplay:10.37,2013-08-26 02:57:00,
2013-08-25 23:02:00,66.2,29.3,30.19,NNE,23,0.0,0.0,25,0.00,CLR,,0.00,WeatherDisplay:10.37,2013-08-26 03:02:00,
2013-08-25 23:07:00,66.2,29.3,30.19,NNE,23,0.0,0.0,25,0.00,CLR,,0.00,WeatherDisplay:10.37,2013-08-26 03:07:00,
2013-08-25 23:12:00,66.2,29.3,30.19,NNE,23,0.0,0.0,25,0.00,CLR,,0.00,WeatherDisplay:10.37,2013-08-26 03:12:00,
2013-08-25 23:17:00,66.0,29.2,30.19,NNE,23,0.0,0.0,25,0.00,CLR,,0.00,WeatherDisplay:10.37,2013-08-26 03:17:00,
2013-08-25 23:22:00,65.8,29.0,30.19,NNE,23,0.0,0.0,25,0.00,CLR,,0.00,WeatherDisplay:10.37,2013-08-26 03:22:00,
2013-08-25 23:27:00,65.7,28.8,30.19,NNE,23,0.0,0.0,25,0.00,CLR,,0.00,WeatherDisplay:10.37,2013-08-26 03:27:00,
2013-08-25 23:32:00,65.7,28.8,30.19,NNE,23,0.0,0.0,25,0.00,CLR,,0.00,WeatherDisplay:10.37,2013-08-26 03:32:00,
2013-08-25 23:37:00,65.7,28.8,30.19,NNE,23,0.0,0.0,25,0.00,CLR,,0.00,WeatherDisplay:10.37,2013-08-26 03:37:00,
2013-08-25 23:42:00,65.5,28.7,30.19,NNE,23,0.0,0.0,25,0.00,CLR,,0.00,WeatherDisplay:10.37,2013-08-26 03:42:00,
2013-08-25 23:47:00,65.7,28.8,30.19,NNE,23,0.0,0.0,25,0.00,CLR,,0.00,WeatherDisplay:10.37,2013-08-26 03:47:00,
2013-08-25 23:52:00,65.7,28.8,30.19,NNE,23,0.0,0.0,25,0.00,CLR,,0.00,WeatherDisplay:10.37,2013-08-26 03:52:00,
2013-08-25 23:57:00,65.7,28.8,30.19,NNE,23,0.0,0.0,25,0.00,CLR,,0.00,WeatherDisplay:10.37,2013-08-26 03:57:00,